COSMOS 2242

Last updated on Fri Jul 11 2025 00:02:13 GMT+0000 (Coordinated Universal Time)

1 22626U 93024A 25191.35307216 .00001405 00000+0 12497-3 0 9996 2 22626 82.5202 138.2314 0018018 44.6026 315.6641 14.95245577744168
UTC large
Height (km)
Speed (km/s)
/
Latitude / Longitude
Inclination (degrees)
Orbital Period (minutes)
Azimuth
Elevation
Range (km)
Doppler Factor

Next 0 passes for location: London (51.5072 / 0.1276)

Sorry there are no passes over London.